,,PA_Meas_PMT16A,,PR_Meas_QMR101_102,,RH_Meas_QMH101,,SR_Meas_QMS101,,TA_Meas_QMH101,,GenWind,,GenWind,
time,status,PA,status,PR,status,RH,status,SR,status,TA,status,DirAvg,status,SpdAvg,
2013-03-24, 00:00:05,VALID,919.512,VALID,0.4,VALID,97.3815,VALID,0,VALID,20.3464,VALID,325,VALID,0,
2013-03-24, 00:01:05,VALID,919.47,VALID,0.2,VALID,97.3586,VALID,0,VALID,20.3269,VALID,326,VALID,0,
2013-03-24, 00:02:05,VALID,919.428,VALID,0.4,VALID,97.351,VALID,0,VALID,20.3284,VALID,325,VALID,0,
2013-03-24, 00:03:05,VALID,919.43,VALID,0.2,VALID,97.3586,VALID,0,VALID,20.3269,VALID,290,VALID,0,
2013-03-24, 00:04:05,VALID,919.392,VALID,0.2,VALID,97.351,VALID,0,VALID,20.3269,VALID,277,VALID,0,
2013-03-24, 00:05:05,VALID,919.37,VALID,0.2,VALID,97.3586,VALID,0,VALID,20.3284,VALID,265,VALID,0,
2013-03-24, 00:06:05,VALID,919.346,VALID,0.2,VALID,97.3663,VALID,0,VALID,20.3074,VALID,244,VALID,0,
2013-03-24, 00:07:05,VALID,919.344,VALID,0.2,VALID,97.351,VALID,0,VALID,20.3479,VALID,198,VALID,0,
2013-03-24, 00:08:05,VALID,919.307,VALID,0,VALID,97.351,VALID,0,VALID,20.3674,VALID,198,VALID,0,
2013-03-24, 00:09:05,VALID,919.308,VALID,0.4,VALID,97.351,VALID,0,VALID,20.3464,VALID,198,VALID,0,
2013-03-24, 00:10:05,VALID,919.229,VALID,0,VALID,97.351,VALID,0,VALID,20.3464,VALID,198,VALID,0,
2013-03-24, 00:11:05,VALID,919.234,VALID,0.2,VALID,97.3586,VALID,0,VALID,20.3479,VALID,226,VALID,0,
2013-03-24, 00:12:05,VALID,919.216,VALID,0.2,VALID,97.3663,VALID,0,VALID,20.3479,VALID,227,VALID,0,
2013-03-24, 00:13:05,VALID,919.22,VALID,0.2,VALID,97.351,VALID,0,VALID,20.3284,VALID,226,VALID,0,
2013-03-24, 00:14:05,VALID,919.213,VALID,0.2,VALID,97.3586,VALID,0,VALID,20.3074,VALID,221,VALID,0,
2013-03-24, 00:15:05,VALID,919.189,VALID,0,VALID,97.3739,VALID,0,VALID,20.3074,VALID,227,VALID,0,
2013-03-24, 00:16:05,VALID,919.188,VALID,0.2,VALID,97.351,VALID,0,VALID,20.3284,VALID,227,VALID,0,
2013-03-24, 00:17:05,VALID,919.214,VALID,0.2,VALID,97.351,VALID,0,VALID,20.3464,VALID,226,VALID,0,
2013-03-24, 00:18:05,VALID,919.213,VALID,0,VALID,97.351,VALID,0,VALID,20.3284,VALID,227,VALID,0,
2013-03-24, 00:19:05,VALID,919.196,VALID,0.2,VALID,97.3663,VALID,0,VALID,20.3284,VALID,227,VALID,0,
2013-03-24, 00:20:05,VALID,919.182,VALID,0.2,VALID,97.3663,VALID,0,VALID,20.3284,VALID,226,VALID,0,
2013-03-24, 00:21:05,VALID,919.151,VALID,0,VALID,97.3815,VALID,0,VALID,20.2684,VALID,227,VALID,0,
2013-03-24, 00:22:05,VALID,919.145,VALID,0.2,VALID,97.3663,VALID,0,VALID,20.3089,VALID,226,VALID,0,
2013-03-24, 00:23:05,VALID,919.16,VALID,0.2,VALID,97.351,VALID,0,VALID,20.2684,VALID,227,VALID,0,
2013-03-24, 00:24:05,VALID,919.125,VALID,0,VALID,97.3586,VALID,0,VALID,20.2489,VALID,226,VALID,0,
2013-03-24, 00:25:05,VALID,919.121,VALID,0.2,VALID,97.3815,VALID,0,VALID,20.2684,VALID,221,VALID,0,
2013-03-24, 00:26:05,VALID,919.129,VALID,0,VALID,97.3663,VALID,0,VALID,20.2684,VALID,192,VALID,0,
2013-03-24, 00:27:05,VALID,919.11,VALID,0.2,VALID,97.3891,VALID,0,VALID,20.2684,VALID,205,VALID,0,
2013-03-24, 00:28:05,VALID,919.099,VALID,0,VALID,97.3663,VALID,0,VALID,20.2699,VALID,224,VALID,0,
2013-03-24, 00:29:05,VALID,919.086,VALID,0.2,VALID,97.3739,VALID,0,VALID,20.2293,VALID,213,VALID,0,
2013-03-24, 00:30:05,VALID,919.065,VALID,0,VALID,97.3815,VALID,0,VALID,20.2083,VALID,204,VALID,0,
2013-03-24, 00:31:05,VALID,919.044,VALID,0,VALID,97.3968,VALID,0,VALID,20.2098,VALID,249,VALID,0,
2013-03-24, 00:32:05,VALID,919.044,VALID,0.2,VALID,97.3739,VALID,0,VALID,20.1919,VALID,250,VALID,0,
2013-03-24, 00:33:05,VALID,919.062,VALID,0,VALID,97.3891,VALID,0,VALID,20.1513,VALID,250,VALID,0,
2013-03-24, 00:34:05,VALID,919.032,VALID,0.2,VALID,97.3815,VALID,0,VALID,20.1724,VALID,250,VALID,0,
2013-03-24, 00:35:05,VALID,918.968,VALID,0,VALID,97.3891,VALID,0,VALID,20.1513,VALID,250,VALID,0,
2013-03-24, 00:36:05,VALID,918.946,VALID,0,VALID,97.3968,VALID,0,VALID,20.0928,VALID,249,VALID,0,
2013-03-24, 00:37:05,VALID,918.912,VALID,0.2,VALID,97.3968,VALID,0,VALID,20.0343,VALID,308,VALID,0,
2013-03-24, 00:38:05,VALID,918.863,VALID,0,VALID,97.4044,VALID,0,VALID,20.0749,VALID,315,VALID,0,
2013-03-24, 00:39:05,VALID,918.792,VALID,0.2,VALID,97.412,VALID,0,VALID,20.0343,VALID,314,VALID,0,
2013-03-24, 00:40:05,VALID,918.734,VALID,0,VALID,97.4349,VALID,0,VALID,19.9773,VALID,226,VALID,0,
2013-03-24, 00:41:05,VALID,918.687,VALID,0,VALID,97.412,VALID,0,VALID,19.9773,VALID,226,VALID,0,
2013-03-24, 00:42:05,VALID,918.638,VALID,0.2,VALID,97.412,VALID,0,VALID,19.9773,VALID,226,VALID,0,
2013-03-24, 00:43:05,VALID,918.571,VALID,0,VALID,97.4196,VALID,0,VALID,19.9773,VALID,226,VALID,0,
2013-03-24, 00:44:05,VALID,918.541,VALID,0,VALID,97.412,VALID,0,VALID,19.9968,VALID,226,VALID,0,
2013-03-24, 00:45:05,VALID,918.492,VALID,0.2,VALID,97.412,VALID,0,VALID,19.9953,VALID,226,VALID,0,
2013-03-24, 00:46:05,VALID,918.446,VALID,0,VALID,97.4273,VALID,0,VALID,20.0163,VALID,226,VALID,0,
2013-03-24, 00:47:05,VALID,918.388,VALID,0.2,VALID,97.4273,VALID,0,VALID,19.9968,VALID,226,VALID,0,
2013-03-24, 00:48:05,VALID,918.337,VALID,0,VALID,97.4273,VALID,0,VALID,19.9563,VALID,226,VALID,0,
2013-03-24, 00:49:05,VALID,918.316,VALID,0.2,VALID,97.4349,VALID,0,VALID,19.9368,VALID,226,VALID,0,
2013-03-24, 00:50:05,VALID,918.256,VALID,0,VALID,97.4349,VALID,0,VALID,19.9173,VALID,99,VALID,0,
2013-03-24, 00:51:05,VALID,918.239,VALID,0.2,VALID,97.4425,VALID,0,VALID,19.9188,VALID,99,VALID,0,
2013-03-24, 00:52:05,VALID,918.193,VALID,0,VALID,97.4425,VALID,0,VALID,19.8993,VALID,99,VALID,0,
2013-03-24, 00:53:05,VALID,918.19,VALID,0,VALID,97.4273,VALID,0,VALID,19.8603,VALID,99,VALID,0,
2013-03-24, 00:54:05,VALID,918.164,VALID,0.2,VALID,97.4501,VALID,0,VALID,19.8408,VALID,99,VALID,0,
2013-03-24, 00:55:05,VALID,918.142,VALID,0,VALID,97.4577,VALID,0,VALID,19.8408,VALID,112,VALID,0,
2013-03-24, 00:56:05,VALID,918.115,VALID,0.2,VALID,97.4349,VALID,0,VALID,19.8198,VALID,137,VALID,0,
2013-03-24, 00:57:05,VALID,918.085,VALID,0,VALID,97.4577,VALID,0,VALID,19.8603,VALID,129,VALID,0,
2013-03-24, 00:58:05,VALID,918.024,VALID,0.2,VALID,97.4501,VALID,0,VALID,19.8813,VALID,130,VALID,0,
2013-03-24, 00:59:05,VALID,918.023,VALID,0,VALID,97.4425,VALID,0,VALID,19.8798,VALID,160,VALID,0,
2013-03-24, 01:00:05,VALID,917.988,VALID,0,VALID,97.4349,VALID,0,VALID,19.9188,VALID,160,VALID,0,
2013-03-24, 01:01:05,VALID,917.99,VALID,0,VALID,97.4501,VALID,0,VALID,19.9383,VALID,160,VALID,0,
2013-03-24, 01:02:05,VALID,917.97,VALID,0.2,VALID,97.4349,VALID,0,VALID,19.9563,VALID,160,VALID,0,
2013-03-24, 01:03:05,VALID,917.934,VALID,0,VALID,97.4425,VALID,0,VALID,19.9968,VALID,160,VALID,0,
2013-03-24, 01:04:05,VALID,917.901,VALID,0,VALID,97.4425,VALID,0,VALID,20.0163,VALID,161,VALID,0,
2013-03-24, 01:05:05,VALID,917.882,VALID,0,VALID,97.4349,VALID,0,VALID,20.0358,VALID,171,VALID,0,
2013-03-24, 01:06:05,VALID,917.832,VALID,0.2,VALID,97.4349,VALID,0,VALID,20.0553,VALID,157,VALID,0,
2013-03-24, 01:07:05,VALID,917.789,VALID,0,VALID,97.4501,VALID,0,VALID,20.0343,VALID,164,VALID,0,
2013-03-24, 01:08:05,VALID,917.755,VALID,0,VALID,97.4196,VALID,0,VALID,20.0553,VALID,167,VALID,0,
2013-03-24, 01:09:05,VALID,917.743,VALID,0,VALID,97.4273,VALID,0,VALID,20.0553,VALID,161,VALID,0,
2013-03-24, 01:10:05,VALID,917.668,VALID,0.2,VALID,97.4501,VALID,0,VALID,19.9578,VALID,126,VALID,0,
2013-03-24, 01:11:05,VALID,917.663,VALID,0,VALID,97.4425,VALID,0,VALID,19.9548,VALID,144,VALID,0,
2013-03-24, 01:12:05,VALID,917.616,VALID,0,VALID,97.4425,VALID,0.107441,VALID,19.9548,VALID,152,VALID,0,
2013-03-24, 01:13:05,VALID,917.565,VALID,0,VALID,97.4349,VALID,0.107441,VALID,19.9368,VALID,143,VALID,0,
2013-03-24, 01:14:05,VALID,917.558,VALID,0,VALID,97.4349,VALID,0.107441,VALID,19.9368,VALID,139,VALID,0,
2013-03-24, 01:15:05,VALID,917.505,VALID,0,VALID,97.4654,VALID,0.107441,VALID,19.9563,VALID,156,VALID,0,
2013-03-24, 01:16:05,VALID,917.491,VALID,0,VALID,97.4425,VALID,0.107441,VALID,19.9353,VALID,151,VALID,0,
2013-03-24, 01:17:05,VALID,917.433,VALID,0.2,VALID,97.4425,VALID,0,VALID,19.9368,VALID,151,VALID,0,
2013-03-24, 01:18:05,VALID,917.426,VALID,0,VALID,97.4577,VALID,0.107441,VALID,19.9563,VALID,148,VALID,0,
2013-03-24, 01:19:05,VALID,917.411,VALID,0,VALID,97.4501,VALID,0,VALID,19.9563,VALID,146,VALID,0,
2013-03-24, 01:20:05,VALID,917.352,VALID,0,VALID,97.473,VALID,0.107441,VALID,19.9563,VALID,169,VALID,0,
2013-03-24, 01:21:05,VALID,917.348,VALID,0,VALID,97.4425,VALID,0.107441,VALID,19.9563,VALID,177,VALID,0,
2013-03-24, 01:22:05,VALID,917.279,VALID,0,VALID,97.4425,VALID,0.107441,VALID,19.9353,VALID,177,VALID,0,
2013-03-24, 01:23:05,VALID,917.242,VALID,0,VALID,97.4425,VALID,0,VALID,19.8963,VALID,142,VALID,0,
2013-03-24, 01:24:05,VALID,917.207,VALID,0,VALID,97.4577,VALID,0.107441,VALID,19.9173,VALID,157,VALID,0,
2013-03-24, 01:25:05,VALID,917.175,VALID,0,VALID,97.4654,VALID,0.107441,VALID,19.8768,VALID,150,VALID,0,
2013-03-24, 01:26:05,VALID,917.106,VALID,0,VALID,97.4577,VALID,0,VALID,19.8603,VALID,123,VALID,0,
2013-03-24, 01:27:05,VALID,917.111,VALID,0,VALID,97.4501,VALID,0,VALID,19.8198,VALID,131,VALID,0,
2013-03-24, 01:28:05,VALID,917.075,VALID,0,VALID,97.4577,VALID,0,VALID,19.8603,VALID,139,VALID,0,
2013-03-24, 01:29:05,VALID,917.03,VALID,0,VALID,97.473,VALID,0,VALID,19.8393,VALID,141,VALID,0,
2013-03-24, 01:30:05,VALID,916.976,VALID,0,VALID,97.4654,VALID,0,VALID,19.8798,VALID,141,VALID,0,
2013-03-24, 01:31:05,VALID,916.988,VALID,0,VALID,97.473,VALID,0,VALID,19.8588,VALID,141,VALID,0,
2013-03-24, 01:32:05,VALID,916.95,VALID,0,VALID,97.4654,VALID,0,VALID,19.8588,VALID,140,VALID,0,
2013-03-24, 01:33:05,VALID,916.906,VALID,0,VALID,97.4806,VALID,0,VALID,19.8993,VALID,146,VALID,0,
2013-03-24, 01:34:05,VALID,916.868,VALID,0,VALID,97.4425,VALID,0,VALID,19.8783,VALID,135,VALID,0,
2013-03-24, 01:35:05,VALID,916.861,VALID,0,VALID,97.4577,VALID,0,VALID,19.8783,VALID,137,VALID,0,
2013-03-24, 01:36:05,VALID,916.832,VALID,0,VALID,97.4654,VALID,0,VALID,19.8993,VALID,135,VALID,0,
2013-03-24, 01:37:05,VALID,916.818,VALID,0,VALID,97.473,VALID,0,VALID,19.8993,VALID,113,VALID,0,
2013-03-24, 01:38:05,VALID,916.795,VALID,0,VALID,97.4654,VALID,0,VALID,19.8798,VALID,107,VALID,0,
2013-03-24, 01:39:05,VALID,916.768,VALID,0,VALID,97.4654,VALID,0,VALID,19.8798,VALID,114,VALID,0,
2013-03-24, 01:40:05,VALID,916.738,VALID,0,VALID,97.4654,VALID,0,VALID,19.8393,VALID,121,VALID,0,
2013-03-24, 01:41:05,VALID,916.734,VALID,0,VALID,97.4806,VALID,0,VALID,19.8603,VALID,120,VALID,0,
2013-03-24, 01:42:05,VALID,916.69,VALID,0,VALID,97.4806,VALID,0,VALID,19.8603,VALID,145,VALID,0,
2013-03-24, 01:43:04,VALID,916.647,VALID,0,VALID,97.473,VALID,0,VALID,19.8408,VALID,164,VALID,0,
2013-03-24, 01:44:04,VALID,916.628,VALID,0,VALID,97.4959,VALID,0,VALID,19.8198,VALID,120,VALID,0,
2013-03-24, 01:45:04,VALID,916.556,VALID,0,VALID,97.4806,VALID,0,VALID,19.8213,VALID,138,VALID,0,
2013-03-24, 01:46:04,VALID,916.525,VALID,0,VALID,97.4806,VALID,0,VALID,19.7808,VALID,132,VALID,0,
2013-03-24, 01:47:04,VALID,916.542,VALID,0,VALID,97.4882,VALID,0,VALID,19.8018,VALID,155,VALID,0,
2013-03-24, 01:48:04,VALID,916.494,VALID,0,VALID,97.4577,VALID,0,VALID,19.8018,VALID,173,VALID,0,
2013-03-24, 01:49:04,VALID,916.446,VALID,0,VALID,97.4654,VALID,0,VALID,19.7613,VALID,162,VALID,0,
2013-03-24, 01:50:04,VALID,916.44,VALID,0,VALID,97.473,VALID,0,VALID,19.7613,VALID,160,VALID,0,
2013-03-24, 01:51:04,VALID,916.411,VALID,0,VALID,97.4959,VALID,0,VALID,19.7433,VALID,140,VALID,0,
2013-03-24, 01:52:04,VALID,916.366,VALID,0,VALID,97.4959,VALID,0,VALID,19.7238,VALID,167,VALID,0,
2013-03-24, 01:53:04,VALID,916.341,VALID,0,VALID,97.5111,VALID,0,VALID,19.6848,VALID,139,VALID,0,
2013-03-24, 01:54:04,VALID,916.297,VALID,0,VALID,97.5035,VALID,0,VALID,19.6263,VALID,143,VALID,0,
2013-03-24, 01:55:04,VALID,916.26,VALID,0,VALID,97.4882,VALID,0,VALID,19.6263,VALID,178,VALID,0,
2013-03-24, 01:56:04,VALID,916.231,VALID,0,VALID,97.534,VALID,0,VALID,19.6248,VALID,148,VALID,0,
2013-03-24, 01:57:04,VALID,916.224,VALID,0,VALID,97.5035,VALID,0,VALID,19.5858,VALID,156,VALID,0,
2013-03-24, 01:58:04,VALID,916.205,VALID,0,VALID,97.4959,VALID,0.107441,VALID,19.6263,VALID,180,VALID,0,
2013-03-24, 01:59:04,VALID,916.174,VALID,0,VALID,97.5111,VALID,0.107441,VALID,19.5858,VALID,149,VALID,0,
2013-03-24, 02:00:04,VALID,916.167,VALID,0,VALID,97.5187,VALID,0,VALID,19.5483,VALID,153,VALID,0,
2013-03-24, 02:01:04,VALID,916.113,VALID,0,VALID,97.5111,VALID,0,VALID,19.5483,VALID,181,VALID,0,
2013-03-24, 02:02:04,VALID,916.11,VALID,0,VALID,97.5416,VALID,0,VALID,19.5288,VALID,151,VALID,0,
2013-03-24, 02:03:04,VALID,916.091,VALID,0,VALID,97.5492,VALID,0,VALID,19.4508,VALID,128,VALID,0,
2013-03-24, 02:04:04,VALID,916.077,VALID,0,VALID,97.534,VALID,0,VALID,19.4118,VALID,150,VALID,0,
2013-03-24, 02:05:04,VALID,916.053,VALID,0,VALID,97.5264,VALID,0,VALID,19.3533,VALID,128,VALID,0,
2013-03-24, 02:06:04,VALID,916.017,VALID,0,VALID,97.5416,VALID,0,VALID,19.3143,VALID,158,VALID,0,
2013-03-24, 02:07:04,VALID,916.046,VALID,0,VALID,97.5492,VALID,0,VALID,19.2948,VALID,124,VALID,0,
2013-03-24, 02:08:04,VALID,916.007,VALID,0,VALID,97.5569,VALID,0,VALID,19.2558,VALID,144,VALID,0,
2013-03-24, 02:09:04,VALID,915.984,VALID,0,VALID,97.5569,VALID,0,VALID,19.2168,VALID,180,VALID,0,
2013-03-24, 02:10:04,VALID,915.977,VALID,0,VALID,97.5416,VALID,0,VALID,19.2182,VALID,176,VALID,0,
2013-03-24, 02:11:04,VALID,915.946,VALID,0,VALID,97.5797,VALID,0,VALID,19.1778,VALID,132,VALID,0,
2013-03-24, 02:12:04,VALID,915.917,VALID,0,VALID,97.5569,VALID,0,VALID,19.1388,VALID,125,VALID,0,
2013-03-24, 02:13:04,VALID,915.901,VALID,0,VALID,97.5797,VALID,0,VALID,19.1388,VALID,93,VALID,0,
2013-03-24, 02:14:04,VALID,915.875,VALID,0,VALID,97.5721,VALID,0,VALID,19.1583,VALID,116,VALID,0,
2013-03-24, 02:15:04,VALID,915.834,VALID,0,VALID,97.5721,VALID,0,VALID,19.1583,VALID,112,VALID,0,
2013-03-24, 02:16:04,VALID,915.79,VALID,0,VALID,97.5721,VALID,0,VALID,19.1583,VALID,112,VALID,0,
2013-03-24, 02:17:04,VALID,915.775,VALID,0,VALID,97.5721,VALID,0,VALID,19.1778,VALID,106,VALID,0,
2013-03-24, 02:18:04,VALID,915.746,VALID,0,VALID,97.5721,VALID,0,VALID,19.1778,VALID,93,VALID,0,
2013-03-24, 02:19:04,VALID,915.713,VALID,0,VALID,97.5797,VALID,0,VALID,19.2168,VALID,110,VALID,0,
2013-03-24, 02:20:04,VALID,915.713,VALID,0,VALID,97.5873,VALID,0,VALID,19.2363,VALID,104,VALID,0,
2013-03-24, 02:21:04,VALID,915.686,VALID,0,VALID,97.5721,VALID,0,VALID,19.2363,VALID,102,VALID,0,
2013-03-24, 02:22:04,VALID,915.694,VALID,0,VALID,97.5797,VALID,0,VALID,19.2558,VALID,119,VALID,0,
2013-03-24, 02:23:04,VALID,915.658,VALID,0,VALID,97.5645,VALID,0,VALID,19.2348,VALID,115,VALID,0,
2013-03-24, 02:24:04,VALID,915.628,VALID,0,VALID,97.595,VALID,0,VALID,19.2168,VALID,104,VALID,0,
2013-03-24, 02:25:04,VALID,915.607,VALID,0,VALID,97.5797,VALID,0,VALID,19.1973,VALID,107,VALID,0,
2013-03-24, 02:26:04,VALID,915.573,VALID,0,VALID,97.5721,VALID,0,VALID,19.1778,VALID,94,VALID,0,
2013-03-24, 02:27:04,VALID,915.554,VALID,0,VALID,97.5873,VALID,0,VALID,19.1583,VALID,97,VALID,0,
2013-03-24, 02:28:04,VALID,915.548,VALID,0,VALID,97.5797,VALID,0,VALID,19.1388,VALID,135,VALID,0,
2013-03-24, 02:29:04,VALID,915.533,VALID,0,VALID,97.5797,VALID,0,VALID,19.0998,VALID,110,VALID,0,
2013-03-24, 02:30:04,VALID,915.55,VALID,0,VALID,97.595,VALID,0,VALID,19.0998,VALID,120,VALID,0,
2013-03-24, 02:31:04,VALID,915.532,VALID,0,VALID,97.5797,VALID,0,VALID,19.0608,VALID,128,VALID,0,
2013-03-24, 02:32:04,VALID,915.541,VALID,0,VALID,97.5873,VALID,0,VALID,19.0622,VALID,112,VALID,0,
2013-03-24, 02:33:04,VALID,915.524,VALID,0,VALID,97.595,VALID,0,VALID,19.0218,VALID,125,VALID,0,
2013-03-24, 02:34:04,VALID,915.53,VALID,0,VALID,97.5873,VALID,0,VALID,19.0008,VALID,147,VALID,0,
2013-03-24, 02:35:04,VALID,915.51,VALID,0,VALID,97.6178,VALID,0,VALID,19.0218,VALID,150,VALID,0,
2013-03-24, 02:36:04,VALID,915.499,VALID,0,VALID,97.6102,VALID,0,VALID,19.0218,VALID,177,VALID,0,
2013-03-24, 02:37:04,VALID,915.512,VALID,0,VALID,97.6102,VALID,0,VALID,19.0218,VALID,131,VALID,0,
2013-03-24, 02:38:04,VALID,915.465,VALID,0,VALID,97.595,VALID,0,VALID,19.0218,VALID,153,VALID,0,
2013-03-24, 02:39:04,VALID,915.497,VALID,0,VALID,97.6102,VALID,0,VALID,18.9633,VALID,141,VALID,0,
2013-03-24, 02:40:04,VALID,915.464,VALID,0,VALID,97.5873,VALID,0,VALID,18.9619,VALID,149,VALID,0,
2013-03-24, 02:41:04,VALID,915.475,VALID,0,VALID,97.595,VALID,0,VALID,18.9828,VALID,138,VALID,0,
2013-03-24, 02:42:04,VALID,915.471,VALID,0,VALID,97.5797,VALID,0,VALID,18.9633,VALID,127,VALID,0,
2013-03-24, 02:43:04,VALID,915.457,VALID,0,VALID,97.5873,VALID,0,VALID,18.9633,VALID,135,VALID,0,
2013-03-24, 02:44:04,VALID,915.432,VALID,0,VALID,97.5797,VALID,0,VALID,18.9633,VALID,140,VALID,0,
2013-03-24, 02:45:04,VALID,915.459,VALID,0,VALID,97.5645,VALID,0,VALID,18.9814,VALID,135,VALID,0,
2013-03-24, 02:46:04,VALID,915.471,VALID,0,VALID,97.5645,VALID,0,VALID,18.9828,VALID,122,VALID,0,
2013-03-24, 02:47:04,VALID,915.46,VALID,0,VALID,97.5569,VALID,0,VALID,18.9828,VALID,126,VALID,0,
2013-03-24, 02:48:04,VALID,915.453,VALID,0,VALID,97.534,VALID,0,VALID,18.9828,VALID,107,VALID,0,
2013-03-24, 02:49:04,VALID,915.502,VALID,0,VALID,97.5187,VALID,0,VALID,18.9633,VALID,119,VALID,0,
2013-03-24, 02:50:04,VALID,915.453,VALID,0,VALID,97.5264,VALID,0,VALID,18.9438,VALID,100,VALID,0,
2013-03-24, 02:51:04,VALID,915.473,VALID,0,VALID,97.4959,VALID,0,VALID,18.9424,VALID,113,VALID,0,
2013-03-24, 02:52:04,VALID,915.469,VALID,0,VALID,97.5187,VALID,0,VALID,18.9438,VALID,120,VALID,0,
2013-03-24, 02:53:04,VALID,915.451,VALID,0,VALID,97.4882,VALID,0,VALID,18.9424,VALID,102,VALID,0,
2013-03-24, 02:54:04,VALID,915.457,VALID,0,VALID,97.4882,VALID,0,VALID,18.9438,VALID,111,VALID,0,
2013-03-24, 02:55:04,VALID,915.442,VALID,0,VALID,97.473,VALID,0,VALID,18.9438,VALID,103,VALID,0,
2013-03-24, 02:56:04,VALID,915.432,VALID,0,VALID,97.4501,VALID,0,VALID,18.9243,VALID,113,VALID,0,
2013-03-24, 02:57:04,VALID,915.436,VALID,0,VALID,97.4273,VALID,0,VALID,18.9243,VALID,122,VALID,0,
2013-03-24, 02:58:04,VALID,915.402,VALID,0,VALID,97.4273,VALID,0,VALID,18.9062,VALID,132,VALID,0,
2013-03-24, 02:59:04,VALID,915.396,VALID,0,VALID,97.412,VALID,0,VALID,18.9048,VALID,94,VALID,0,
2013-03-24, 03:00:04,VALID,915.406,VALID,0,VALID,97.4349,VALID,0,VALID,18.8853,VALID,142,VALID,0,
2013-03-24, 03:01:04,VALID,915.403,VALID,0,VALID,97.4501,VALID,0,VALID,18.8867,VALID,143,VALID,0,
2013-03-24, 03:02:04,VALID,915.378,VALID,0,VALID,97.412,VALID,0,VALID,18.8658,VALID,146,VALID,0,
2013-03-24, 03:03:04,VALID,915.4,VALID,0,VALID,97.4273,VALID,0,VALID,18.8463,VALID,151,VALID,0,
2013-03-24, 03:04:04,VALID,915.421,VALID,0,VALID,97.4196,VALID,0,VALID,18.8268,VALID,147,VALID,0,
2013-03-24, 03:05:04,VALID,915.416,VALID,0,VALID,97.412,VALID,0,VALID,18.8268,VALID,139,VALID,0,
2013-03-24, 03:06:04,VALID,915.429,VALID,0,VALID,97.4349,VALID,0,VALID,18.8073,VALID,163,VALID,0,
2013-03-24, 03:07:04,VALID,915.416,VALID,0,VALID,97.4349,VALID,0,VALID,18.8073,VALID,181,VALID,0,
2013-03-24, 03:08:04,VALID,915.414,VALID,0,VALID,97.4273,VALID,0,VALID,18.8073,VALID,168,VALID,0,
2013-03-24, 03:09:04,VALID,915.447,VALID,0,VALID,97.4501,VALID,0,VALID,18.8073,VALID,179,VALID,0,
2013-03-24, 03:10:04,VALID,915.454,VALID,0,VALID,97.4501,VALID,0,VALID,18.7878,VALID,176,VALID,0,
2013-03-24, 03:11:04,VALID,915.455,VALID,0,VALID,97.4349,VALID,0,VALID,18.7878,VALID,176,VALID,0,
2013-03-24, 03:12:04,VALID,915.442,VALID,0,VALID,97.4349,VALID,0,VALID,18.8073,VALID,168,VALID,0,
2013-03-24, 03:13:04,VALID,915.422,VALID,0,VALID,97.4501,VALID,0,VALID,18.8268,VALID,173,VALID,0,
2013-03-24, 03:14:04,VALID,915.393,VALID,0,VALID,97.4501,VALID,0,VALID,18.8268,VALID,162,VALID,0,
2013-03-24, 03:15:04,VALID,915.425,VALID,0,VALID,97.4577,VALID,0,VALID,18.8672,VALID,165,VALID,0,
2013-03-24, 03:16:04,VALID,915.387,VALID,0,VALID,97.4577,VALID,0,VALID,18.8268,VALID,165,VALID,0,
2013-03-24, 03:17:04,VALID,915.397,VALID,0,VALID,97.4654,VALID,0,VALID,18.7864,VALID,142,VALID,0,
2013-03-24, 03:18:04,VALID,915.401,VALID,0,VALID,97.4577,VALID,0,VALID,18.7878,VALID,131,VALID,0,
2013-03-24, 03:19:04,VALID,915.402,VALID,0,VALID,97.4349,VALID,0,VALID,18.8073,VALID,133,VALID,0,
2013-03-24, 03:20:04,VALID,915.396,VALID,0,VALID,97.4425,VALID,0,VALID,18.8073,VALID,131,VALID,0,
2013-03-24, 03:21:04,VALID,915.408,VALID,0,VALID,97.4349,VALID,0,VALID,18.8059,VALID,129,VALID,0,
2013-03-24, 03:22:04,VALID,915.41,VALID,0,VALID,97.4273,VALID,0,VALID,18.8268,VALID,133,VALID,0,
2013-03-24, 03:23:04,VALID,915.403,VALID,0,VALID,97.4196,VALID,0,VALID,18.8268,VALID,131,VALID,0,
2013-03-24, 03:24:04,VALID,915.401,VALID,0,VALID,97.4196,VALID,0,VALID,18.8268,VALID,126,VALID,0,
2013-03-24, 03:25:04,VALID,915.419,VALID,0,VALID,97.4196,VALID,0,VALID,18.8073,VALID,131,VALID,0,
2013-03-24, 03:26:04,VALID,915.429,VALID,0,VALID,97.4196,VALID,0,VALID,18.7864,VALID,157,VALID,0,
2013-03-24, 03:27:04,VALID,915.423,VALID,0,VALID,97.4044,VALID,0,VALID,18.8073,VALID,146,VALID,0,
2013-03-24, 03:28:04,VALID,915.434,VALID,0,VALID,97.4196,VALID,0,VALID,18.8268,VALID,127,VALID,0,
2013-03-24, 03:29:04,VALID,915.469,VALID,0,VALID,97.4273,VALID,0,VALID,18.8268,VALID,139,VALID,0,
2013-03-24, 03:30:04,VALID,915.485,VALID,0,VALID,97.4196,VALID,0,VALID,18.8268,VALID,156,VALID,0,
2013-03-24, 03:31:04,VALID,915.466,VALID,0,VALID,97.4044,VALID,0,VALID,18.8268,VALID,168,VALID,0,
2013-03-24, 03:32:04,VALID,915.465,VALID,0,VALID,97.4196,VALID,0,VALID,18.8268,VALID,167,VALID,0,
2013-03-24, 03:33:04,VALID,915.478,VALID,0,VALID,97.4044,VALID,0,VALID,18.8073,VALID,162,VALID,0,
2013-03-24, 03:34:04,VALID,915.49,VALID,0,VALID,97.4273,VALID,0,VALID,18.8268,VALID,147,VALID,0,
2013-03-24, 03:35:04,VALID,915.488,VALID,0,VALID,97.4273,VALID,0,VALID,18.8073,VALID,151,VALID,0,
2013-03-24, 03:36:04,VALID,915.531,VALID,0,VALID,97.4273,VALID,0,VALID,18.7864,VALID,144,VALID,0,
2013-03-24, 03:37:04,VALID,915.554,VALID,0,VALID,97.4273,VALID,0,VALID,18.7878,VALID,140,VALID,0,
2013-03-24, 03:38:04,VALID,915.553,VALID,0,VALID,97.412,VALID,0,VALID,18.8087,VALID,138,VALID,0,
2013-03-24, 03:39:04,VALID,915.562,VALID,0,VALID,97.4349,VALID,0,VALID,18.7878,VALID,123,VALID,0,
2013-03-24, 03:40:04,VALID,915.587,VALID,0,VALID,97.4196,VALID,0,VALID,18.7878,VALID,131,VALID,0,
2013-03-24, 03:41:04,VALID,915.585,VALID,0,VALID,97.4349,VALID,0,VALID,18.7683,VALID,129,VALID,0,
2013-03-24, 03:42:04,VALID,915.6,VALID,0,VALID,97.4425,VALID,0,VALID,18.7878,VALID,146,VALID,0,
2013-03-24, 03:43:04,VALID,915.611,VALID,0,VALID,97.4425,VALID,0,VALID,18.7878,VALID,137,VALID,0,
2013-03-24, 03:44:04,VALID,915.654,VALID,0,VALID,97.4196,VALID,0.107441,VALID,18.8073,VALID,137,VALID,0,
2013-03-24, 03:45:04,VALID,915.637,VALID,0,VALID,97.4349,VALID,0,VALID,18.7878,VALID,137,VALID,0,
2013-03-24, 03:46:04,VALID,915.657,VALID,0,VALID,97.4273,VALID,0,VALID,18.8073,VALID,137,VALID,0,
2013-03-24, 03:47:04,VALID,915.646,VALID,0,VALID,97.4349,VALID,0,VALID,18.7878,VALID,137,VALID,0,
2013-03-24, 03:48:04,VALID,915.676,VALID,0,VALID,97.4196,VALID,0,VALID,18.8073,VALID,137,VALID,0,
2013-03-24, 03:49:04,VALID,915.663,VALID,0,VALID,97.4425,VALID,0.107441,VALID,18.7683,VALID,137,VALID,0,
2013-03-24, 03:50:04,VALID,915.648,VALID,0,VALID,97.4425,VALID,0,VALID,18.7293,VALID,137,VALID,0,
2013-03-24, 03:51:04,VALID,915.637,VALID,0,VALID,97.4425,VALID,0,VALID,18.7697,VALID,116,VALID,0,
2013-03-24, 03:52:04,VALID,915.638,VALID,0,VALID,97.4577,VALID,0,VALID,18.7488,VALID,116,VALID,0,
2013-03-24, 03:53:04,VALID,915.647,VALID,0,VALID,97.4501,VALID,0,VALID,18.7293,VALID,110,VALID,0,
2013-03-24, 03:54:04,VALID,915.65,VALID,0,VALID,97.4654,VALID,0,VALID,18.7098,VALID,126,VALID,0,
2013-03-24, 03:55:04,VALID,915.668,VALID,0,VALID,97.4654,VALID,0,VALID,18.7293,VALID,132,VALID,0,
2013-03-24, 03:56:04,VALID,915.685,VALID,0,VALID,97.4654,VALID,0,VALID,18.6903,VALID,124,VALID,0,
2013-03-24, 03:57:04,VALID,915.699,VALID,0,VALID,97.4577,VALID,0,VALID,18.6903,VALID,132,VALID,0,
2013-03-24, 03:58:04,VALID,915.695,VALID,0,VALID,97.4654,VALID,0,VALID,18.7098,VALID,159,VALID,0,